Location: Artiguedieu
(43.5000°N, 0.5454°E)
Time: 13:21:39
(UTC+00:00)

Transit 2A - Visible Passes

Search period start: 04 August 2021 00:00
Search period end: 14 August 2021 00:00
Orbit: 598 x 960 km, 66.7° (Epoch: 04 August)

Date Brightness Start Highest point End Pass type
(mag) Time Alt. Az. Time Alt. Az. Time Alt. Az.
06 Aug 7.6 04:06:14 10° SSE 04:09:53 26° ESE 04:13:43 10° NE visible
07 Aug 8.1 03:33:01 10° SSE 03:35:54 17° ESE 03:38:54 10° ENE visible
08 Aug 8.3 03:00:51 10° ESE 03:01:59 11° ESE 03:03:09 10° E visible
09 Aug 5.9 04:05:45 10° SSW 04:10:06 70° ESE 04:14:49 10° NE visible
10 Aug 6.5 03:32:09 12° S 03:36:01 44° ESE 03:40:29 10° NE visible
11 Aug 7.2 02:59:14 16° SSE 03:01:58 29° ESE 03:05:58 10° NE visible
12 Aug 7.6 02:26:15 15° SE 02:27:59 19° ESE 02:31:14 10° ENE visible
12 Aug 6.1 04:06:45 12° SW 04:10:40 48° NW 04:15:20 10° NNE visible
13 Aug 8.1 01:53:14 12° ESE 01:54:03 12° ESE 01:55:51 10° E visible
13 Aug 5.6 03:33:45 24° SW 03:36:24 72° WNW 03:41:13 10° NNE visible
